This demonstration page uses our WeatherBlox Daily Observations layout. Learn more.

40.92945, -100.16068

Hourly Observations for January 25, 2015

Temp ( °F °C ) Dew Point ( °F °C ) Humidity (%) Winds ( mph kmh ) Pressure ( in mb ) Visibility ( mi km ) Precip ( " mm )
12:15 am 00:15 Cloudy 45 7.2 32 -0.1 60 60 NW 26 43 29.88 1012 10 16.0934 N/A
12:35 am 00:35 Cloudy 45 7.4 32 0 60 60 NW 29 46 29.88 1012 10 16.0934 N/A
12:55 am 00:55 Partly Cloudy 44 6.7 31 -0.6 60 60 NW 29 46 29.88 1012 10 16.0934 N/A
1:15 am 01:15 Clear 43 6 31 -0.6 63 63 NW 29 46 29.88 1012 10 16.0934 N/A
1:35 am 01:35 Partly Cloudy 43 6.1 31 -0.6 63 63 NW 26 43 29.91 1013 10 16.0934 N/A
1:55 am 01:55 Partly Cloudy 43 6 31 -0.7 62 62 NW 29 46 29.91 1013 10 16.0934 N/A
2:15 am 02:15 Partly Cloudy 42 5.6 30 -1 63 63 NW 25 41 29.91 1013 10 16.0934 N/A
2:35 am 02:35 Partly Cloudy 42 5.6 29 -1.5 61 61 NNW 25 41 29.94 1014 10 16.0934 N/A
2:55 am 02:55 Clear 41 5.2 30 -1.3 63 63 NW 22 35 29.97 1015 10 16.0934 N/A
3:15 am 03:15 Clear 41 5 29 -1.4 64 64 NW 24 39 29.97 1015 10 16.0934 N/A
3:35 am 03:35 Partly Cloudy 40 4.3 30 -1.3 67 67 NW 21 33 29.97 1015 10 16.0934 N/A
3:55 am 03:55 Partly Cloudy 39 4.1 30 -1 70 70 NW 22 35 30 1016 10 16.0934 N/A
4:15 am 04:15 Partly Cloudy 39 4 30 -1.1 70 70 NW 23 37 30 1016 10 16.0934 N/A
4:35 am 04:35 Mostly Cloudy 39 4 30 -1 70 70 NNW 23 37 30 1016 10 16.0934 N/A
4:55 am 04:55 Cloudy 40 4.3 30 -1.1 68 68 NNW 24 39 30 1016 10 16.0934 N/A
5:15 am 05:15 Cloudy 40 4.4 30 -1.2 67 67 NNW 29 46 30.03 1017 10 16.0934 N/A
5:35 am 05:35 Mostly Cloudy 40 4.3 29 -1.5 66 66 NNW 25 41 30.03 1017 10 16.0934 N/A
5:55 am 05:55 Cloudy 40 4.3 30 -1.2 68 68 NNW 22 35 30.03 1017 10 16.0934 N/A
6:15 am 06:15 Cloudy 40 4.2 29 -1.4 67 67 NW 18 30 30.03 1017 10 16.0934 N/A
6:35 am 06:35 Mostly Cloudy 38 3.2 29 -1.7 71 71 NW 17 28 30.06 1018 10 16.0934 N/A
6:55 am 06:55 Partly Cloudy 37 2.8 29 -1.7 73 73 NW 15 24 30.09 1019 10 16.0934 N/A
7:15 am 07:15 Partly Cloudy 36 2.4 29 -1.9 74 74 NW 12 19 30.09 1019 10 16.0934 N/A
7:35 am 07:35 Partly Cloudy 35 1.8 29 -1.9 77 77 NW 14 22 30.09 1019 10 16.0934 N/A
7:55 am 07:55 Partly Cloudy 34 1.2 28 -2 79 79 WNW 10 17 30.09 1019 10 16.0934 N/A
8:15 am 08:15 Cloudy 36 2.2 29 -1.5 77 77 WNW 9 15 30.09 1019 10 16.0934 N/A
8:35 am 08:35 Cloudy 37 2.5 30 -1.2 77 77 WNW 9 15 30.12 1020 10 16.0934 N/A
8:55 am 08:55 Cloudy 37 2.7 30 -1.2 76 76 NW 9 15 30.12 1020 10 16.0934 N/A
9:15 am 09:15 Cloudy 37 3 30 -1.3 74 74 NW 12 19 30.12 1020 10 16.0934 N/A
9:35 am 09:35 Cloudy 37 3 30 -1.3 74 74 NW 12 19 30.12 1020 10 16.0934 N/A
9:55 am 09:55 Cloudy 38 3.3 30 -1.2 73 73 NW 12 19 30.12 1020 10 16.0934 N/A
10:15 am 10:15 Cloudy 40 4.6 30 -1 67 67 NNW 21 33 30.09 1019 10 16.0934 N/A
10:35 am 10:35 Partly Cloudy 42 5.6 30 -1.1 62 62 NNW 21 33 30.09 1019 10 16.0934 N/A
10:55 am 10:55 Mostly Cloudy 42 5.5 30 -1.1 63 63 NNW 16 26 30.09 1019 10 16.0934 N/A
11:15 am 11:15 Partly Cloudy 42 5.5 30 -1.2 62 62 N 21 33 30.12 1020 10 16.0934 N/A
11:35 am 11:35 Mostly Cloudy 44 6.7 31 -0.8 59 59 NNW 22 35 30.09 1019 10 16.0934 N/A
11:55 am 11:55 Partly Cloudy 45 7 30 -1.2 56 56 NNW 25 41 30.09 1019 10 16.0934 N/A
12:15 pm 12:15 Partly Cloudy 45 7 29 -1.4 55 55 NNW 21 33 30.09 1019 10 16.0934 N/A
12:35 pm 12:35 Partly Cloudy 45 7.4 29 -1.7 53 53 N 17 28 30.09 1019 10 16.0934 N/A
12:55 pm 12:55 Partly Cloudy 46 7.9 29 -1.8 51 51 N 20 31 30.06 1018 10 16.0934 N/A
1:15 pm 13:15 Mostly Cloudy 46 7.6 29 -1.7 52 52 N 22 35 30.06 1018 10 16.0934 N/A
1:35 pm 13:35 Mostly Cloudy 46 7.8 29 -1.5 52 52 NNW 14 22 30.06 1018 10 16.0934 N/A
1:55 pm 13:55 Partly Cloudy 46 8 29 -1.5 51 51 N 14 22 30.06 1018 10 16.0934 N/A
2:15 pm 14:15 Partly Cloudy 46 8 29 -1.4 52 52 N 13 20 30.06 1018 10 16.0934 N/A
2:35 pm 14:35 Partly Cloudy 46 7.8 29 -1.9 51 51 N 9 15 30.06 1018 10 16.0934 N/A
2:55 pm 14:55 Partly Cloudy 46 8 29 -1.7 51 51 N 10 17 30.06 1018 10 16.0934 N/A
3:15 pm 15:15 Sunny 47 8.5 29 -1.8 49 49 N 13 20 30.06 1018 10 16.0934 N/A
3:35 pm 15:35 Sunny 48 9 28 -2.1 46 46 NW 13 20 30.06 1018 10 16.0934 N/A
3:55 pm 15:55 Sunny 48 8.7 29 -1.6 49 49 N 8 13 30.06 1018 10 16.0934 N/A
4:15 pm 16:15 Sunny 48 8.7 28 -2.1 47 47 N 9 15 30.06 1018 10 16.0934 N/A
4:35 pm 16:35 Sunny 47 8.5 29 -1.8 49 49 NNE 5 7 30.06 1018 10 16.0934 N/A
4:55 pm 16:55 Sunny 46 7.8 28 -2 50 50 NE 5 7 30.06 1018 10 16.0934 N/A
5:15 pm 17:15 Sunny 44 6.9 29 -1.8 54 54 NE 6 9 30.09 1019 10 16.0934 N/A
5:35 pm 17:35 Sunny 41 4.8 28 -2.3 60 60 ENE 7 11 30.09 1019 10 16.0934 N/A
5:55 pm 17:55 Clear 39 3.8 28 -2 66 66 E 6 9 30.09 1019 10 16.0934 N/A
6:15 pm 18:15 Clear 38 3.6 28 -2.4 65 65 E 5 7 30.09 1019 10 16.0934 N/A
6:35 pm 18:35 Clear 36 2.1 27 -2.6 71 71 Calm 30.12 1020 10 16.0934 N/A
6:55 pm 18:55 Clear 32 -0.1 26 -3.5 78 78 SSE 5 7 30.15 1021 10 16.0934 N/A
7:15 pm 19:15 Clear 34 0.9 27 -2.8 77 77 SSE 5 7 30.12 1020 10 16.0934 N/A
7:35 pm 19:35 Clear 33 0.5 27 -3 78 78 S 6 9 30.12 1020 10 16.0934 N/A
7:55 pm 19:55 Partly Cloudy 33 0.7 27 -2.8 78 78 SE 5 7 30.12 1020 10 16.0934 N/A
8:15 pm 20:15 Cloudy 33 0.5 27 -2.8 79 79 SSE 3 6 30.12 1020 10 16.0934 N/A
8:35 pm 20:35 Cloudy 33 0.3 28 -2.5 82 82 SW 6 9 30.15 1021 10 16.0934 N/A
8:55 pm 20:55 Cloudy 34 1.1 29 -1.8 81 81 S 3 6 30.12 1020 10 16.0934 N/A
9:15 pm 21:15 Cloudy 35 1.6 29 -1.6 80 80 Calm 30.12 1020 10 16.0934 N/A
9:35 pm 21:35 Cloudy 36 2 29 -1.5 78 78 S 6 9 30.12 1020 10 16.0934 N/A
9:55 pm 21:55 Cloudy 36 2.1 30 -1.2 79 79 S 5 7 30.12 1020 10 16.0934 N/A
10:15 pm 22:15 Cloudy 37 2.9 30 -1.2 75 75 SW 6 9 30.12 1020 10 16.0934 N/A
10:35 pm 22:35 Cloudy 38 3.2 29 -1.5 72 72 S 6 9 30.12 1020 10 16.0934 N/A
10:55 pm 22:55 Cloudy 39 3.8 29 -1.5 69 69 S 8 13 30.09 1019 10 16.0934 N/A
11:15 pm 23:15 Cloudy 39 4 29 -1.6 67 67 SSW 6 9 30.09 1019 10 16.0934 N/A
11:35 pm 23:35 Cloudy 40 4.2 29 -1.9 65 65 SW 7 11 30.09 1019 10 16.0934 N/A
11:55 pm 23:55 Mostly Cloudy 39 3.8 27 -2.7 63 63 SW 5 7 30.09 1019 10 16.0934 N/A

Powered by AerisWeather